FW1745 Weather Reports


Display with metric or nautical units.
time (UTC)temp
F
wind
direction
speed
MPH
gust
MPH
rain 1hr
in
rain 24hr
in
rain mn
in
humidity
%
barometer
mb
20210622214449 86 330 0.0 1.0 0.00 0.21 0.21 64 1016.1
20210622213948 85 331 0.0 0.0 0.00 0.21 0.21 68 1016.3
20210622213448 85 332 0.0 0.0 0.00 0.21 0.21 69 1016.0
20210622212943 87 331 0.0 1.0 0.00 0.21 0.21 61 1016.3
20210622212435 88 332 0.0 0.0 0.00 0.21 0.21 67 1016.2
20210622211923 88 332 0.0 0.0 0.00 0.21 0.21 63 1016.5
20210622211417 89 333 0.0 0.0 0.00 0.21 0.21 62 1016.6
20210622210900 89 316 0.0 1.0 0.00 0.21 0.21 60 1016.5
20210622210359 89 306 0.0 0.0 0.00 0.21 0.21 62 1016.5
20210622205856 88 332 1.0 1.0 0.00 0.21 0.21 61 1016.7
20210622205350 87 332 0.0 0.0 0.00 0.21 0.21 65 1016.9
20210622204844 88 323 1.0 1.0 0.00 0.21 0.21 63 1016.9
20210622204341 88 297 0.0 0.0 0.00 0.21 0.21 66 1017.1
20210622203838 87 306 0.0 0.0 0.00 0.21 0.21 69 1016.9
20210622203336 86 316 0.0 0.0 0.00 0.21 0.21 65 1017.1
20210622202832 86 314 0.0 0.0 0.00 0.21 0.21 69 1017.2
20210622202328 85 339 1.0 1.0 0.00 0.21 0.21 66 1017.2
20210622201825 85 331 0.0 1.0 0.00 0.21 0.21 67 1017.4
20210622201316 84 315 0.0 0.0 0.00 0.21 0.21 72 1017.1
20210622200815 85 328 0.0 0.0 0.00 0.21 0.21 69 1017.4
20210622200308 87 318 1.0 1.0 0.00 0.21 0.21 66 1017.1
20210622195804 86 260 0.0 0.0 0.00 0.21 0.21 73 1017.2
20210622195301 85 270 0.0 0.0 0.00 0.21 0.21 66 1017.4
20210622194801 86 280 0.0 0.0 0.00 0.21 0.21 68 1017.6
20210622194253 86 334 0.0 0.0 0.00 0.21 0.21 72 1017.4
20210622193752 85 333 0.0 0.0 0.00 0.21 0.21 73 1017.6
20210622193248 86 332 0.0 1.0 0.00 0.21 0.21 65 1017.6
20210622192742 84 287 0.0 0.0 0.00 0.21 0.21 75 1017.8
20210622192239 82 336 0.0 1.0 0.00 0.21 0.21 81 1017.8
20210622191738 81 324 0.0 1.0 0.00 0.21 0.21 74 1017.9
20210622191235 81 298 0.0 0.0 0.00 0.21 0.21 74 1017.9
20210622190732 81 333 0.0 0.0 0.00 0.21 0.21 73 1017.9
20210622190227 81 320 0.0 0.0 0.00 0.21 0.21 74 1017.8
20210622185722 80 304 0.0 0.0 0.00 0.21 0.21 70 1018.0
20210622185216 80 331 0.0 1.0 0.00 0.21 0.21 76 1018.0
20210622184706 79 327 1.0 2.0 0.00 0.21 0.21 72 1018.0
20210622184206 79 323 0.0 0.0 0.00 0.21 0.21 76 1018.1
20210622183701 79 323 0.0 0.0 0.00 0.21 0.21 76 1018.2
20210622183158 79 323 0.0 0.0 0.00 0.21 0.21 77 1018.4
20210622182658 79 324 0.0 0.0 0.00 0.21 0.21 73 1018.4
20210622182153 77 285 0.0 0.0 0.00 0.21 0.21 80 1018.5
20210622181650 78 305 0.0 0.0 0.00 0.21 0.21 77 1018.7
20210622181146 78 306 0.0 0.0 0.00 0.21 0.21 77 1018.8
20210622180633 78 307 0.0 0.0 0.00 0.21 0.21 77 1018.6
20210622180130 78 301 0.0 0.0 0.00 0.21 0.21 78 1018.7
20210622175625 77 306 0.0 0.0 0.00 0.21 0.21 75 1018.8
20210622175124 77 322 0.0 0.0 0.00 0.21 0.21 80 1018.9
20210622174621 77 335 0.0 0.0 0.00 0.21 0.21 77 1018.7
20210622174116 77 335 0.0 0.0 0.00 0.21 0.21 76 1018.7
20210622173611 77 335 0.0 0.0 0.00 0.21 0.21 76 1018.6
20210622173108 77 331 0.0 0.0 0.00 0.21 0.21 79 1018.6
20210622172605 78 319 0.0 1.0 0.00 0.21 0.21 75 1018.5
20210622172102 77 330 0.0 0.0 0.00 0.21 0.21 80 1018.4
20210622171558 77 332 0.0 1.0 0.00 0.21 0.21 81 1018.5
20210622171053 76 327 0.0 0.0 0.00 0.21 0.21 81 1018.6
20210622170552 76 325 0.0 0.0 0.00 0.21 0.21 80 1018.6
20210622170048 77 325 0.0 0.0 0.00 0.21 0.21 77 1018.5
20210622165546 77 312 0.0 0.0 0.00 0.21 0.21 79 1018.6
20210622165041 77 312 0.0 0.0 0.00 0.21 0.21 81 1018.6
20210622164535 77 312 0.0 0.0 0.00 0.21 0.21 79 1018.4
20210622164029 77 312 0.0 0.0 0.00 0.21 0.21 76 1018.3
20210622163524 77 292 0.0 0.0 0.00 0.21 0.21 80 1018.4
20210622163021 77 310 0.0 0.0 0.00 0.21 0.21 82 1018.2
20210622162519 77 289 0.0 0.0 0.00 0.21 0.21 79 1018.1
20210622162016 77 331 0.0 0.0 0.00 0.21 0.21 81 1018.2
20210622161513 76 325 0.0 0.0 0.00 0.21 0.21 80 1018.2
20210622161009 76 328 1.0 1.0 0.00 0.21 0.21 78 1018.2
20210622160503 75 306 0.0 0.0 0.00 0.21 0.21 82 1018.1
20210622155954 75 312 0.0 0.0 0.00 0.21 0.21 78 1017.9
20210622155452 76 318 0.0 0.0 0.00 0.21 0.21 82 1017.9
20210622154951 75 301 0.0 0.0 0.00 0.21 0.21 83 1018.1
20210622154441 74 320 0.0 0.0 0.00 0.21 0.21 81 1017.9
20210622153936 74 317 0.0 0.0 0.00 0.21 0.21 82 1017.8
20210622153433 74 315 0.0 0.0 0.00 0.21 0.21 82 1017.8
20210622152926 74 320 1.0 2.0 0.00 0.21 0.21 83 1017.8
20210622152425 74 323 1.0 1.0 0.00 0.21 0.21 82 1017.9
20210622151922 74 304 0.0 0.0 0.00 0.21 0.21 83 1017.6
20210622151420 73 280 0.0 1.0 0.00 0.21 0.21 83 1017.8
20210622150917 73 281 0.0 0.0 0.00 0.21 0.21 85 1017.8
20210622150409 73 301 0.0 0.0 0.00 0.21 0.21 86 1017.7
20210622145908 72 293 0.0 0.0 0.00 0.21 0.21 86 1018.0
20210622145405 72 302 0.0 0.0 0.00 0.21 0.21 86 1017.8
20210622144903 72 260 1.0 2.0 0.00 0.21 0.21 85 1018.1
20210622144402 72 323 0.0 1.0 0.00 0.21 0.21 89 1017.8
20210622143859 72 328 1.0 3.0 0.00 0.21 0.21 87 1017.8
20210622143355 72 295 0.0 0.0 0.00 0.21 0.21 90 1017.6
20210622142852 71 298 0.0 0.0 0.00 0.21 0.21 90 1017.7
20210622142345 71 285 0.0 0.0 0.00 0.21 0.21 91 1017.6
20210622141844 71 327 0.0 0.0 0.00 0.21 0.21 92 1017.5
20210622141341 70 311 0.0 1.0 0.00 0.21 0.21 90 1017.6
20210622140836 70 321 0.0 0.0 0.00 0.21 0.21 90 1017.4
20210622140333 70 315 1.0 1.0 0.00 0.21 0.21 90 1017.3
20210622135829 70 301 0.0 0.0 0.00 0.21 0.21 91 1017.2
20210622135328 70 289 0.0 0.0 0.00 0.21 0.21 90 1017.5
20210622134827 69 312 0.0 0.0 0.00 0.21 0.21 92 1017.3
20210622134323 69 315 0.0 1.0 0.00 0.21 0.21 92 1017.4
20210622133817 69 298 0.0 0.0 0.00 0.21 0.21 93 1017.1
20210622133313 69 309 0.0 0.0 0.00 0.21 0.21 93 1017.1
20210622132810 69 273 0.0 1.0 0.00 0.21 0.21 93 1017.3
20210622132309 68 313 0.0 0.0 0.00 0.21 0.21 93 1017.2
20210622131804 68 303 0.0 0.0 0.00 0.21 0.21 94 1017.0
20210622131259 68 324 0.0 0.0 0.00 0.21 0.21 94 1017.1
20210622130757 68 307 0.0 0.0 0.00 0.21 0.21 95 1017.1
20210622130248 68 321 0.0 0.0 0.00 0.21 0.21 95 1017.0
20210622125741 68 286 0.0 0.0 0.00 0.21 0.21 94 1016.9
20210622125241 68 327 0.0 1.0 0.00 0.21 0.21 94 1016.9
20210622124740 68 319 0.0 0.0 0.00 0.21 0.21 96 1017.1
20210622124237 68 310 0.0 0.0 0.00 0.21 0.21 95 1017.2
20210622123731 68 313 0.0 0.0 0.00 0.21 0.21 96 1017.0
20210622123228 68 327 0.0 0.0 0.00 0.21 0.21 95 1016.8
20210622122726 68 320 0.0 0.0 0.00 0.21 0.21 96 1016.9
20210622122223 68 327 0.0 0.0 0.00 0.21 0.21 96 1016.7
20210622121715 68 321 0.0 0.0 0.00 0.21 0.21 96 1016.8
20210622121210 68 290 0.0 0.0 0.00 0.21 0.21 97 1016.7
20210622120704 68 315 0.0 1.0 0.00 0.21 0.21 97 1016.8
20210622120200 68 325 0.0 0.0 0.00 0.21 0.21 97 1016.7
20210622115656 68 321 0.0 1.0 0.00 0.21 0.21 97 1016.6
20210622115153 69 320 0.0 0.0 0.00 0.21 0.21 98 1016.6
20210622114648 69 314 0.0 0.0 0.00 0.21 0.21 98 1016.8
20210622114146 69 300 0.0 0.0 0.00 0.21 0.21 98 1017.0
20210622113644 69 325 0.0 0.0 0.00 0.21 0.21 98 1016.9
20210622113142 69 325 0.0 0.0 0.00 0.21 0.21 98 1017.1
20210622112637 69 325 0.0 0.0 0.00 0.21 0.21 98 1016.7
20210622112129 69 326 0.0 0.0 0.00 0.21 0.21 98 1016.6
20210622111625 69 323 1.0 3.0 0.00 0.21 0.21 98 1016.4
20210622111117 69 325 0.0 0.0 0.00 0.21 0.21 98 1016.5
20210622110616 69 323 0.0 0.0 0.00 0.21 0.21 98 1016.4
20210622110111 69 323 0.0 0.0 0.00 0.21 0.21 98 1016.4
20210622105602 69 320 0.0 0.0 0.00 0.21 0.21 98 1016.1
20210622105100 69 322 0.0 0.0 0.00 0.21 0.21 98 1016.2
20210622104556 70 323 0.0 0.0 0.00 0.21 0.21 99 1016.3
20210622104048 70 323 0.0 1.0 0.00 0.21 0.21 99 1016.2
20210622103542 70 315 0.0 1.0 0.00 0.21 0.21 99 1016.1
20210622103042 71 330 1.0 2.0 0.00 0.21 0.21 99 1016.1
20210622102538 71 322 0.0 0.0 0.00 0.21 0.21 99 1016.1
20210622102036 71 299 0.0 0.0 0.00 0.21 0.21 99 1015.8
20210622101530 71 297 0.0 0.0 0.00 0.21 0.21 99 1015.8
20210622101026 71 311 0.0 0.0 0.00 0.21 0.21 99 1015.9
20210622100500 72 314 0.0 0.0 0.00 0.21 0.21 99 1016.1
20210622095958 71 312 0.0 0.0 0.00 0.21 0.21 99 1015.8
20210622095451 71 311 0.0 0.0 0.00 0.21 0.21 99 1015.6
20210622094950 71 294 0.0 0.0 0.00 0.21 0.21 99 1015.3
20210622094444 71 312 0.0 0.0 0.00 0.21 0.21 99 1015.4
20210622093943 72 315 0.0 0.0 0.00 0.21 0.21 99 1015.5
20210622093437 72 325 0.0 0.0 0.00 0.21 0.21 99 1015.5
20210622092932 72 34 0.0 1.0 0.00 0.21 0.21 99 1015.2
20210622092429 72 324 0.0 0.0 0.00 0.21 0.21 99 1015.3
20210622091919 73 312 0.0 0.0 0.00 0.21 0.21 99 1015.4
20210622091414 73 305 0.0 0.0 0.00 0.21 0.21 99 1015.0
20210622090912 73 330 0.0 2.0 0.00 0.21 0.21 99 1015.1
20210622090408 73 324 0.0 0.0 0.00 0.21 0.21 99 1015.0
20210622085902 73 304 0.0 0.0 0.00 0.21 0.21 99 1014.6
20210622085402 73 313 0.0 0.0 0.00 0.21 0.21 99 1014.9
20210622084851 73 325 0.0 0.0 0.00 0.21 0.21 99 1014.8
20210622084351 73 295 0.0 0.0 0.00 0.21 0.21 99 1014.9
20210622083845 73 307 0.0 0.0 0.00 0.21 0.21 99 1014.8
20210622083344 73 313 0.0 0.0 0.00 0.21 0.21 99 1015.0
20210622082839 73 315 0.0 1.0 0.07 0.21 0.21 99 1015.0
20210622082335 73 318 0.0 0.0 0.07 0.21 0.21 99 1015.1
20210622081833 73 304 0.0 0.0 0.11 0.20 0.20 99 1015.0
20210622081330 73 304 0.0 0.0 0.23 0.20 0.20 99 1014.9
20210622080827 73 303 0.0 0.0 0.23 0.18 0.18 99 1015.4
20210622080319 73 303 0.0 0.0 0.35 0.16 0.16 99 1015.5
20210622075816 73 303 0.0 0.0 0.49 0.14 0.14 99 1015.4
20210622075315 73 303 0.0 0.0 0.42 0.10 0.10 99 1015.8
20210622074811 73 303 0.0 0.0 0.23 0.05 0.05 99 1015.7
20210622074308 74 303 0.0 0.0 0.11 0.03 0.03 99 1015.4
20210622073802 74 303 0.0 0.0 0.04 0.02 0.02 99 1015.7
20210622073258 74 303 0.0 0.0 0.04 0.02 0.02 99 1015.8
20210622072755 74 303 0.0 0.0 0.00 0.01 0.01 99 1015.9
20210622072250 73 303 0.0 0.0 0.00 0.01 0.01 99 1015.7
20210622071742 73 303 0.0 0.0 0.00 0.01 0.01 99 1015.7
20210622071242 73 303 0.0 0.0 0.00 0.01 0.01 99 1015.4
20210622070740 73 303 0.0 0.0 0.00 0.01 0.01 99 1015.5
20210622070235 73 303 0.0 0.0 0.00 0.01 0.01 99 1015.5
20210622065731 73 303 0.0 0.0 0.00 0.01 0.01 99 1015.6
20210622065230 73 303 0.0 0.0 0.00 0.01 0.01 99 1015.7
20210622064724 73 303 0.0 0.0 0.00 0.01 0.01 99 1016.0
20210622064220 73 304 0.0 0.0 0.00 0.01 0.01 99 1015.6
20210622063720 73 323 0.0 0.0 0.00 0.01 0.01 99 1015.2
20210622063217 73 323 0.0 0.0 0.00 0.01 0.01 99 1015.3
20210622062710 73 323 0.0 0.0 0.00 0.01 0.01 99 1015.5
20210622062159 73 323 0.0 0.0 0.00 0.01 0.01 99 1015.8
20210622061648 73 323 0.0 0.0 0.00 0.01 0.01 99 1015.9
20210622061130 73 323 0.0 0.0 0.00 0.01 0.01 99 1015.6
20210622060625 73 323 0.0 0.0 0.00 0.01 0.01 99 1015.5
20210622060122 73 323 0.0 0.0 0.00 0.01 0.01 99 1015.5
20210622055617 73 323 0.0 0.0 0.00 0.01 0.01 99 1015.4
20210622055111 73 323 0.0 0.0 0.00 0.01 0.01 99 1015.4
20210622054610 73 323 0.0 0.0 0.00 0.01 0.01 99 1015.6
20210622054057 73 323 0.0 0.0 0.00 0.01 0.01 99 1015.4
20210622053556 73 323 0.0 0.0 0.00 0.01 0.01 99 1014.8
20210622053054 73 323 0.0 0.0 0.00 0.01 0.01 99 1015.4
20210622052552 73 323 0.0 0.0 0.00 0.01 0.01 99 1015.6
20210622052051 73 322 0.0 0.0 0.00 0.01 0.01 99 1015.5
20210622051544 73 323 0.0 0.0 0.00 0.01 0.01 99 1015.1
20210622051037 73 303 0.0 0.0 0.11 0.01 0.01 99 1014.9
20210622050435 73 332 1.0 1.0 0.35 0.01 0.01 99 1014.8
20210622045921 73 331 0.0 0.0 0.89 0.75 0.75 98 1015.2
20210622045421 73 318 0.0 0.0 1.32 0.71 0.71 98 1015.2
20210622044918 73 309 0.0 0.0 1.25 0.61 0.61 98 1015.5
20210622044412 73 309 0.0 0.0 0.85 0.47 0.47 98 1015.5
20210622043910 73 316 0.0 1.0 0.35 0.39 0.39 98 1015.4
20210622043401 73 318 1.0 1.0 0.00 0.33 0.33 98 1015.5
20210622042901 73 318 1.0 2.0 0.00 0.33 0.33 98 1015.5
20210622042358 73 311 0.0 0.0 0.00 0.33 0.33 98 1015.3
20210622041854 73 318 1.0 1.0 0.00 0.33 0.33 98 1015.5
20210622041350 74 292 1.0 1.0 0.00 0.33 0.33 98 1015.4
20210622040845 74 295 0.0 0.0 0.00 0.33 0.33 98 1015.2
20210622040338 74 289 0.0 1.0 0.00 0.33 0.33 98 1015.1
20210622035837 74 287 0.0 0.0 0.00 0.33 0.33 98 1014.7
20210622035336 73 294 0.0 0.0 0.00 0.33 0.33 98 1014.6
20210622034836 74 294 0.0 0.0 0.00 0.33 0.33 98 1014.9
20210622034329 74 294 0.0 0.0 0.00 0.33 0.33 98 1014.7
20210622033829 74 293 0.0 0.0 0.00 0.33 0.33 98 1015.0
20210622033318 74 294 0.0 0.0 0.18 0.33 0.33 98 1014.7
20210622032814 74 294 0.0 0.0 0.85 0.33 0.33 97 1014.7
20210622032309 74 293 0.0 0.0 0.85 0.31 0.31 97 1015.1
20210622031809 74 292 0.0 0.0 0.11 0.18 0.18 97 1015.2
20210622031304 74 291 0.0 0.0 0.00 0.16 0.16 97 1015.5
20210622030755 74 300 0.0 0.0 0.00 0.16 0.16 97 1015.1
20210622030251 75 300 0.0 0.0 0.00 0.16 0.16 97 1015.1
20210622025743 74 300 0.0 0.0 0.00 0.16 0.16 97 1015.2
20210622025236 74 300 0.0 0.0 0.00 0.16 0.16 97 1014.8
20210622024731 74 300 0.0 0.0 0.00 0.16 0.16 96 1014.8
20210622024226 74 300 0.0 0.0 0.00 0.16 0.16 96 1014.8
20210622023723 74 300 0.0 0.0 0.00 0.16 0.16 96 1014.4
20210622023221 74 300 0.0 0.0 0.00 0.16 0.16 96 1014.1
20210622022716 74 300 0.0 0.0 0.00 0.16 0.16 96 1014.0
20210622022211 74 299 0.0 0.0 0.00 0.16 0.16 96 1013.9
20210622021709 74 299 0.0 0.0 0.00 0.16 0.16 96 1014.0
20210622021205 74 299 0.0 0.0 0.00 0.16 0.16 96 1014.0
20210622020700 74 299 0.0 0.0 0.00 0.16 0.16 96 1013.7
20210622020158 74 299 0.0 0.0 0.00 0.16 0.16 96 1013.8
20210622015653 74 299 0.0 1.0 0.00 0.16 0.16 96 1013.6
20210622015146 74 300 0.0 0.0 0.00 0.16 0.16 96 1013.5
20210622014643 74 300 0.0 0.0 0.00 0.16 0.16 96 1013.4
20210622014137 75 300 0.0 0.0 0.00 0.16 0.16 96 1013.1
20210622013633 75 300 0.0 1.0 0.00 0.16 0.16 96 1013.1
20210622013118 75 300 0.0 0.0 0.00 0.16 0.16 96 1013.2
20210622012616 75 300 0.0 0.0 0.00 0.16 0.16 96 1013.2
20210622012115 75 300 0.0 0.0 0.00 0.16 0.16 96 1013.0
20210622011612 75 299 0.0 0.0 0.00 0.16 0.16 96 1012.8
20210622011108 75 299 0.0 0.0 0.00 0.16 0.16 96 1012.7
20210622010604 76 299 0.0 0.0 0.00 0.16 0.16 97 1013.0
20210622010101 76 299 0.0 0.0 0.00 0.16 0.16 97 1012.5
20210622005555 76 299 0.0 0.0 0.00 0.16 0.16 97 1012.5
20210622005051 76 299 0.0 0.0 0.00 0.16 0.16 97 1012.7
20210622004541 76 299 0.0 0.0 0.00 0.16 0.16 96 1012.6
20210622004038 76 299 0.0 0.0 0.00 0.16 0.16 96 1012.1
20210622003538 76 299 0.0 0.0 0.00 0.16 0.16 96 1012.4
20210622003034 76 299 0.0 0.0 0.00 0.16 0.16 96 1011.8
20210622002531 76 299 0.0 0.0 0.00 0.16 0.16 96 1012.0
20210622002025 76 299 0.0 0.0 0.00 0.16 0.16 96 1011.8
20210622001520 76 299 0.0 0.0 0.00 0.16 0.16 96 1012.0
20210622001016 76 299 0.0 0.0 0.00 0.16 0.16 96 1012.0
20210622000513 77 300 0.0 0.0 0.00 0.16 0.16 96 1012.0
20210622000008 76 299 0.0 0.0 0.00 0.16 0.16 96 1011.8
20210621235505 76 302 0.0 0.0 0.00 0.16 0.16 96 1011.8
20210621234958 76 302 0.0 0.0 0.00 0.16 0.16 96 1012.2
20210621234453 76 296 0.0 0.0 0.00 0.16 0.16 96 1012.2
20210621233946 76 325 2.0 2.0 0.00 0.16 0.16 96 1012.2
20210621233444 77 277 0.0 1.0 0.00 0.16 0.16 96 1012.2
20210621232939 77 277 0.0 0.0 0.00 0.16 0.16 97 1012.1
20210621232432 77 277 0.0 1.0 0.00 0.16 0.16 97 1011.7
20210621231927 77 271 0.0 0.0 0.00 0.16 0.16 97 1011.5
20210621231423 76 271 0.0 0.0 0.00 0.16 0.16 97 1011.5
20210621230917 76 271 0.0 0.0 0.00 0.16 0.16 96 1011.3
20210621230410 76 271 0.0 0.0 0.00 0.16 0.16 96 1011.2
20210621225906 76 271 0.0 0.0 0.00 0.16 0.16 96 1011.0
20210621225403 76 271 0.0 0.0 0.00 0.16 0.16 96 1010.9
20210621224859 77 270 0.0 1.0 0.00 0.16 0.16 96 1010.2
20210621224349 77 274 0.0 0.0 0.00 0.16 0.16 96 1010.6
20210621223849 78 292 1.0 1.0 0.00 0.16 0.16 96 1011.5
20210621223347 77 293 0.0 0.0 0.00 0.16 0.16 96 1011.4
20210621222847 78 293 0.0 0.0 0.04 0.16 0.16 96 1010.6
20210621222342 78 292 0.0 0.0 0.23 0.16 0.16 96 1011.2
20210621221832 78 292 0.0 0.0 0.35 0.16 0.16 96 1011.5
20210621221332 78 292 0.0 0.0 0.23 0.13 0.13 95 1011.5
20210621220826 79 290 0.0 0.0 0.07 0.10 0.10 95 1011.8
20210621220323 79 291 0.0 0.0 0.00 0.09 0.09 95 1011.8
20210621215820 79 324 0.0 0.0 0.00 0.09 0.09 94 1011.6
20210621215315 79 325 0.0 0.0 0.18 0.09 0.09 94 1011.4